• In Hungary
  • List of Countries
  • For 7 days
  • Water Temperature
  • Satellite Maps
  • Weather Map
  • News
  • Weather Widgets
  • user-avatar
    Login

    Hourly Weather Dorka

    Today, 21 October, Sunday

    Time Temperature Precipitation Wind Pressure Humidity
    00:00 +5°C° 0 mm 0 mps 754 mmHg 90%
    01:00 +4°C° 0 mm 0 mps 755 mmHg 91%
    02:00 +4°C° 0 mm 0 mps 755 mmHg 91%
    03:00 +4°C° 0 mm 0 mps 755 mmHg 91%
    04:00 +4°C° 0 mm 0 mps 755 mmHg 90%
    05:00 +4°C° 0 mm 0 mps 755 mmHg 90%
    06:00 +5°C° 0 mm 0 mps 755 mmHg 89%
    07:00 +5°C° 0 mm 0 mps 756 mmHg 87%
    08:00 +7°C° 0 mm 1 mps 756 mmHg 83%
    09:00 +7°C° 0 mm 1 mps 756 mmHg 79%
    10:00 +8°C° 0 mm 1 mps 756 mmHg 76%
    11:00 +9°C° 0 mm 1 mps 756 mmHg 73%
    12:00 +9°C° 0 mm 1 mps 756 mmHg 72%
    13:00 +9°C° 0 mm 1 mps 756 mmHg 72%
    14:00 +9°C° 0 mm 1 mps 756 mmHg 71%
    15:00 +9°C° 0 mm 1 mps 756 mmHg 73%
    16:00 +8°C° 0 mm 1 mps 756 mmHg 75%
    17:00 +7°C° 0 mm 2 mps 756 mmHg 77%
    18:00 +6°C° 0 mm 2 mps 756 mmHg 78%
    19:00 +6°C° 0 mm 2 mps 756 mmHg 78%
    20:00 +6°C° 0 mm 2 mps 756 mmHg 79%
    21:00 +5°C° 0 mm 2 mps 755 mmHg 81%
    22:00 +5°C° 0 mm 2 mps 755 mmHg 84%
    23:00 +4°C° 0 mm 2 mps 755 mmHg 86%

    Tomorrow, 22 October, Monday

    Time Temperature Precipitation Wind Pressure Humidity
    00:00 +3°C° 0 mm 3 mps 755 mmHg 87%
    01:00 +3°C° 0 mm 3 mps 754 mmHg 88%
    02:00 +3°C° 0 mm 3 mps 754 mmHg 89%
    03:00 +3°C° 0 mm 3 mps 753 mmHg 89%
    04:00 +3°C° 0 mm 4 mps 753 mmHg 89%
    05:00 +3°C° 0 mm 4 mps 752 mmHg 89%
    06:00 +3°C° 0 mm 4 mps 752 mmHg 86%
    07:00 +2°C° 0 mm 5 mps 751 mmHg 83%
    08:00 +3°C° 0 mm 5 mps 751 mmHg 80%
    09:00 +5°C° 0 mm 5 mps 750 mmHg 76%
    10:00 +6°C° 0 mm 5 mps 750 mmHg 72%
    11:00 +7°C° 0 mm 6 mps 749 mmHg 68%
    12:00 +7°C° 0 mm 6 mps 748 mmHg 67%
    13:00 +7°C° 0 mm 6 mps 748 mmHg 67%
    14:00 +8°C° 0 mm 6 mps 747 mmHg 66%
    15:00 +7°C° 0 mm 5 mps 747 mmHg 69%
    16:00 +7°C° 0 mm 5 mps 746 mmHg 71%
    17:00 +7°C° 0 mm 5 mps 746 mmHg 73%
    18:00 +7°C° 0.1 mm 5 mps 745 mmHg 75%
    19:00 +7°C° 0.1 mm 5 mps 745 mmHg 78%
    20:00 +7°C° 0.1 mm 5 mps 744 mmHg 80%
    21:00 +7°C° 0.3 mm 4 mps 744 mmHg 82%
    22:00 +7°C° 0.3 mm 4 mps 743 mmHg 85%
    23:00 +6°C° 0.3 mm 4 mps 743 mmHg 87%

    Day after tomorrow, 23 October, Tuesday

    Time Temperature Precipitation Wind Pressure Humidity
    00:00 +6°C° 0.5 mm 4 mps 743 mmHg 88%
    01:00 +7°C° 0.5 mm 3 mps 742 mmHg 89%
    02:00 +7°C° 0.5 mm 3 mps 742 mmHg 90%
    03:00 +7°C° 0.4 mm 3 mps 742 mmHg 89%
    04:00 +5°C° 0.4 mm 3 mps 742 mmHg 89%
    05:00 +5°C° 0.4 mm 3 mps 742 mmHg 88%
    06:00 +4°C° 0 mm 3 mps 742 mmHg 86%
    07:00 +4°C° 0 mm 3 mps 742 mmHg 84%
    08:00 +4°C° 0 mm 3 mps 742 mmHg 83%
    09:00 +4°C° 0 mm 3 mps 741 mmHg 78%
    10:00 +5°C° 0 mm 3 mps 741 mmHg 74%
    11:00 +5°C° 0 mm 3 mps 741 mmHg 69%
    12:00 +5°C° 0 mm 3 mps 741 mmHg 68%
    13:00 +7°C° 0 mm 2 mps 740 mmHg 67%
    14:00 +7°C° 0 mm 2 mps 740 mmHg 65%
    15:00 +6°C° 0 mm 2 mps 739 mmHg 70%
    16:00 +5°C° 0 mm 2 mps 739 mmHg 76%
    17:00 +5°C° 0 mm 1 mps 738 mmHg 81%
    18:00 +5°C° 0 mm 1 mps 738 mmHg 81%
    19:00 +4°C° 0 mm 1 mps 737 mmHg 82%
    20:00 +4°C° 0 mm 1 mps 737 mmHg 82%
    21:00 +4°C° 0 mm 1 mps 736 mmHg 84%
    22:00 +3°C° 0 mm 2 mps 736 mmHg 85%
    23:00 +2°C° 0 mm 2 mps 735 mmHg 87%

    24 October, Wednesday

    Time Temperature Precipitation Wind Pressure Humidity
    00:00 +2°C° 0 mm 2 mps 734 mmHg 87%
    01:00 +2°C° 0 mm 2 mps 734 mmHg 88%
    02:00 +2°C° 0 mm 2 mps 733 mmHg 89%
    03:00 +1°C° 0 mm 2 mps 733 mmHg 89%
    04:00 +1°C° 0 mm 2 mps 732 mmHg 90%
    05:00 0°C° 0 mm 3 mps 732 mmHg 91%
    06:00 0°C° 0 mm 3 mps 732 mmHg 90%
    07:00 0°C° 0 mm 3 mps 732 mmHg 89%
    08:00 0°C° 0 mm 3 mps 732 mmHg 88%
    09:00 +1°C° 0 mm 3 mps 732 mmHg 83%
    10:00 +3°C° 0 mm 3 mps 732 mmHg 78%
    11:00 +4°C° 0 mm 3 mps 732 mmHg 73%
    12:00 +4°C° 0 mm 3 mps 732 mmHg 73%
    13:00 +4°C° 0 mm 3 mps 731 mmHg 72%
    14:00 +4°C° 0 mm 3 mps 731 mmHg 71%
    15:00 +4°C° 0 mm 3 mps 732 mmHg 75%
    16:00 +3°C° 0 mm 3 mps 732 mmHg 79%
    17:00 +2°C° 0 mm 3 mps 732 mmHg 83%
    18:00 +2°C° 0 mm 3 mps 732 mmHg 84%
    19:00 +2°C° 0 mm 3 mps 732 mmHg 85%
    20:00 +2°C° 0 mm 3 mps 732 mmHg 86%
    21:00 +2°C° 0.1 mm 3 mps 732 mmHg 86%
    22:00 +2°C° 0.1 mm 3 mps 732 mmHg 86%
    23:00 +2°C° 0.1 mm 3 mps 732 mmHg 87%

    25 October, Thursday

    Time Temperature Precipitation Wind Pressure Humidity
    00:00 +2°C° 0.3 mm 3 mps 731 mmHg 87%
    01:00 +2°C° 0.3 mm 3 mps 731 mmHg 87%
    02:00 +1°C° 0.3 mm 4 mps 731 mmHg 87%
    03:00 +1°C° 0.3 mm 4 mps 730 mmHg 87%
    04:00 +3°C° 0.3 mm 4 mps 730 mmHg 88%
    05:00 +3°C° 0.3 mm 4 mps 730 mmHg 89%
    06:00 +3°C° 0.6 mm 4 mps 729 mmHg 89%
    07:00 +3°C° 0.6 mm 4 mps 729 mmHg 89%
    08:00 +3°C° 0.6 mm 4 mps 729 mmHg 89%
    09:00 +3°C° 1.1 mm 4 mps 728 mmHg 89%
    10:00 +3°C° 1.1 mm 4 mps 728 mmHg 89%
    11:00 +3°C° 1.1 mm 4 mps 728 mmHg 90%
    12:00 +3°C° 1.1 mm 3 mps 728 mmHg 90%
    13:00 +3°C° 1.1 mm 3 mps 727 mmHg 90%
    14:00 +3°C° 1.1 mm 3 mps 727 mmHg 91%
    15:00 +3°C° 0.5 mm 3 mps 727 mmHg 92%
    16:00 +4°C° 0.5 mm 2 mps 727 mmHg 93%
    17:00 +4°C° 0.5 mm 2 mps 727 mmHg 94%
    18:00 +4°C° 0.5 mm 2 mps 726 mmHg 93%
    19:00 +4°C° 0.5 mm 2 mps 726 mmHg 93%
    20:00 +3°C° 0.5 mm 3 mps 725 mmHg 93%
    21:00 +3°C° 1 mm 3 mps 725 mmHg 92%
    22:00 +3°C° 1 mm 3 mps 725 mmHg 91%
    23:00 +3°C° 1 mm 4 mps 724 mmHg 90%

    26 October, Friday

    Time Temperature Precipitation Wind Pressure Humidity
    00:00 +1°C° 0.6 mm 4 mps 724 mmHg 89%
    01:00 +1°C° 0.6 mm 4 mps 724 mmHg 88%
    02:00 +1°C° 0.6 mm 5 mps 724 mmHg 87%
    03:00 +1°C° 0.5 mm 5 mps 724 mmHg 86%
    04:00 +1°C° 0.5 mm 5 mps 725 mmHg 85%
    05:00 0°C° 0.5 mm 5 mps 725 mmHg 85%
    06:00 0°C° 0.2 mm 5 mps 726 mmHg 84%
    07:00 0°C° 0.2 mm 5 mps 727 mmHg 83%
    08:00 0°C° 0.2 mm 5 mps 727 mmHg 82%
    09:00 +1°C° 0 mm 6 mps 728 mmHg 80%
    10:00 +1°C° 0 mm 6 mps 729 mmHg 77%
    11:00 +1°C° 0 mm 6 mps 730 mmHg 74%
    12:00 +1°C° 0 mm 6 mps 730 mmHg 75%
    13:00 +1°C° 0 mm 6 mps 731 mmHg 76%
    14:00 +2°C° 0 mm 5 mps 731 mmHg 77%
    15:00 +1°C° 0 mm 5 mps 732 mmHg 78%
    16:00 +1°C° 0 mm 5 mps 733 mmHg 79%
    17:00 +1°C° 0 mm 4 mps 733 mmHg 80%
    18:00 0°C° 0 mm 4 mps 734 mmHg 82%
    19:00 0°C° 0 mm 4 mps 734 mmHg 84%
    20:00 -1°C° 0 mm 4 mps 735 mmHg 85%
    21:00 -1°C° 0 mm 4 mps 735 mmHg 86%
    22:00 0°C° 0 mm 3 mps 736 mmHg 87%
    23:00 0°C° 0 mm 3 mps 736 mmHg 87%
    Show more